Regional Weather Roundup
Issued by NWS

Home | Current Version | Previous Version | Graphics & Text | Print | Product List | Glossary On
Versions: 1 2 3 4 5 6 7 8 9 10 11 12 13 14 15 16 17 18 19 20 21 22 23 24 25 26 27 28 29 30 31 32 33 34 35 36 37 38 39 40 41 42 43 44 45 46 47 48 49
000
ASUS45 KCYS 050310
RWRWY

WYOMING REGIONAL WEATHER ROUNDUP
NATIONAL WEATHER SERVICE CHEYENNE WY
900 PM MDT MON MAY 04 2015

NOTE:  "FAIR" INDICATES FEW OR NO CLOUDS BELOW 12,000 FEET
WITH NO SIGNIFICANT WEATHER AND/OR OBSTRUCTIONS TO VISIBILITY.

WYZ001-050400-
YELLOWSTONE NATIONAL PARK

CITY           SKY/WX    TMP DP  RH WIND       PRES   REMARKS
LK YELLOWSTONE   N/A     48  32  53 CALM      30.06R
W YELLOWSTONE  NOT AVBL

$$
WYZ002>013-054>058-071-098>099-050400-
NORTHERN WYOMING

CITY           SKY/WX    TMP DP  RH WIND       PRES   REMARKS
JACKSON        FAIR      54  36  50 W3        29.97S
CODY           FAIR      57  45  62 S3        29.93S
GREYBULL       FAIR      66  38  35 W7        29.86R
WORLAND        FAIR      58  39  49 E8        29.89R
SHERIDAN       FAIR      56  44  64 S6        29.92S
BUFFALO        CLOUDY    57  43  59 S10       30.02R
GILLETTE       FAIR      49  36  61 SE17      30.02R
HULETT         FAIR      50  39  66 S5        30.05R
NEWCASTLE      FAIR      50  32  50 SE20      30.08R

$$
WYZ014>020-022>026-101>103-050400-
CENTRAL WYOMING

CITY           SKY/WX    TMP DP  RH WIND       PRES   REMARKS
BIG PINEY      MOCLDY    50  37  61 NW6       30.02R
PINEDALE       CLOUDY    52  36  54 SW7       30.02S
DUBOIS         FAIR      50  36  57 SE13      30.02S
LANDER         CLOUDY    57  41  55 VRB7      29.95R
RIVERTON       CLOUDY    60  38  43 S22G31    29.97R
CASPER         FAIR      52  44  74 E9        29.98R
DOUGLAS        FAIR      51  41  68 SE14      30.04R

$$
WYZ021-027>030-104>119-050400-
SOUTHERN WYOMING

CITY           SKY/WX    TMP DP  RH WIND       PRES   REMARKS
EVANSTON       CLOUDY    50  38  63 E6        30.02R
KEMMERER       CLOUDY    46  37  71 NE8G22    30.04S
FORT BRIDGER   PTCLDY    46  46 100 SE7       30.06S
ROCK SPRINGS   CLOUDY    52  37  56 W13       30.03R
DIXON          FAIR      47  40  75 E6        30.06R
RAWLINS        FAIR      49  40  71 SW3       30.04S
SARATOGA       FAIR      46  43  87 CALM      30.07R
LARAMIE        FAIR      44  41  89 SE16      30.09R
CHEYENNE       CLOUDY    47  40  76 SE17      30.11R
TORRINGTON     FAIR      52  35  52 SE18G25   30.07R
PINE BLUFFS    CLOUDY    45  43  93 E10G17    30.11R

$$



USA.gov is the U.S. government's official web portal to all federal, state and local government web resources and services.